TimeEST,TemperatureF,Dew PointF,Humidity,Sea Level PressureIn,VisibilityMPH,Wind Direction,Wind SpeedMPH,Gust SpeedMPH,PrecipitationIn,Events,Conditions,WindDirDegrees,DateUTC
12:54 AM,55.9,50.0,80,29.65,8.0,WSW,18.4,26.5,N/A,,Mostly Cloudy,240,2013-12-05 05:54:00
1:43 AM,50.0,42.8,76,29.68,9.0,West,21.9,32.2,N/A,,Overcast,270,2013-12-05 06:43:00
1:54 AM,48.9,42.1,77,29.69,10.0,West,20.7,31.1,N/A,,Overcast,260,2013-12-05 06:54:00
2:10 AM,48.2,39.2,71,29.70,10.0,West,17.3,26.5,N/A,,Overcast,270,2013-12-05 07:10:00
2:54 AM,46.0,37.9,73,29.72,10.0,West,17.3,26.5,N/A,,Overcast,260,2013-12-05 07:54:00
3:54 AM,44.1,36.0,73,29.76,10.0,WSW,11.5,-,N/A,,Mostly Cloudy,240,2013-12-05 08:54:00
4:54 AM,39.9,33.1,77,29.79,10.0,WSW,15.0,25.3,N/A,,Overcast,250,2013-12-05 09:54:00
5:54 AM,37.0,30.0,76,29.83,10.0,West,17.3,-,N/A,,Overcast,260,2013-12-05 10:54:00
6:46 AM,33.8,26.6,75,29.84,10.0,West,16.1,-,N/A,,Partly Cloudy,280,2013-12-05 11:46:00
6:54 AM,34.0,27.0,75,29.86,10.0,West,17.3,21.9,N/A,,Scattered Clouds,270,2013-12-05 11:54:00
7:38 AM,33.8,26.6,75,29.86,10.0,WSW,13.8,20.7,N/A,,Mostly Cloudy,250,2013-12-05 12:38:00
7:54 AM,33.1,26.1,75,29.89,10.0,WSW,13.8,-,N/A,,Overcast,240,2013-12-05 12:54:00
8:54 AM,32.0,25.0,75,29.94,10.0,West,15.0,-,N/A,,Overcast,260,2013-12-05 13:54:00
9:54 AM,32.0,24.1,73,29.96,10.0,West,13.8,-,N/A,,Overcast,280,2013-12-05 14:54:00
10:54 AM,33.1,24.1,70,30.00,10.0,West,16.1,25.3,N/A,,Overcast,280,2013-12-05 15:54:00
11:54 AM,32.0,23.0,69,30.00,10.0,West,15.0,-,N/A,,Overcast,280,2013-12-05 16:54:00
12:54 PM,32.0,21.9,66,30.01,10.0,West,13.8,20.7,N/A,,Mostly Cloudy,280,2013-12-05 17:54:00
1:54 PM,32.0,21.0,64,30.01,10.0,West,15.0,-,N/A,,Mostly Cloudy,280,2013-12-05 18:54:00
2:13 PM,32.0,21.2,64,30.02,10.0,WNW,10.4,-,N/A,,Mostly Cloudy,290,2013-12-05 19:13:00
2:54 PM,30.9,19.9,64,30.05,10.0,West,15.0,-,N/A,,Partly Cloudy,280,2013-12-05 19:54:00
3:54 PM,30.0,19.0,64,30.07,10.0,West,12.7,-,N/A,,Clear,280,2013-12-05 20:54:00
4:54 PM,30.0,19.0,64,30.11,10.0,West,10.4,-,N/A,,Clear,270,2013-12-05 21:54:00
5:54 PM,28.9,17.1,61,30.11,10.0,West,11.5,-,N/A,,Clear,280,2013-12-05 22:54:00
6:54 PM,28.9,17.1,61,30.15,10.0,West,13.8,-,N/A,,Clear,270,2013-12-05 23:54:00
7:54 PM,28.0,17.1,63,30.16,10.0,West,8.1,-,N/A,,Scattered Clouds,270,2013-12-06 00:54:00
8:54 PM,28.0,18.0,66,30.20,10.0,West,10.4,-,N/A,,Scattered Clouds,270,2013-12-06 01:54:00
9:02 PM,28.4,17.6,64,30.17,10.0,West,9.2,-,N/A,,Mostly Cloudy,260,2013-12-06 02:02:00
9:54 PM,28.0,18.0,66,30.22,10.0,WSW,10.4,-,N/A,,Overcast,250,2013-12-06 02:54:00
10:54 PM,28.0,18.0,66,30.20,10.0,NW,6.9,-,N/A,,Overcast,310,2013-12-06 03:54:00
11:54 PM,28.0,17.1,63,30.23,10.0,NW,9.2,-,N/A,,Overcast,310,2013-12-06 04:54:00